Tracking 29040 objects as of 15-Jun-2024
HD Live streaming from Space Station
objects crossing your sky now

CARTOSAT-1

Track CARTOSAT-1 now!
10-day predictions
CARTOSAT-1 is classified as:


NORAD ID: 28649
Int'l Code: 2005-017A
Perigee: 613.5 km
Apogee: 615.4 km
Inclination: 97.6 °
Period: 96.8 minutes
Semi major axis: 6985 km
RCS: 4.7551 m2 (large)
Launch date: May 5, 2005
Source: India (IND)
Launch site: SRIHARIKOTA (SRI)

Remote sensing and mapping, land use, forest cover, river flow assessments.
Your satellite tracking list
Your tracking list is empty




NASA's NSSDC Master Catalog

Two Line Element Set (TLE):
1 28649U 05017A   24167.59758435  .00002497  00000-0  28453-3 0  9995
2 28649  97.6135 211.0962 0001346  47.2277 312.9053 14.87013880 34927
Source of the keplerian elements: AFSPC